Wind_Speed
8 9 10 11 10 9 8 9 8 9 8 6 8 9 9 9 10 10 9 7 5 7 9 10 13 14 9 5 5 5 4 3 3 2 1 1 1 3 3 1 5 8 9 9 7 4 4 7 10 13 14 13 14 17 21 23 23 20 20 22 21 20 21 21 21 26 30 32 32 31 30 29 29 28 28 28 29 29 29 30 29 27 26 25 23 22
7 9 11 11 10 9 7 8 9 9 8 8 9 10 11 11 12 10 8 7 6 7 11 14 15 13 9 7 8 7 4 4 4 2 2 2 2 2 1 3 8 8 7 8 7 5 6 7 9 14 15 14 16 18 22 25 27 25 24 24 22 21 22 23 20 21 28 32 32 33 32 29 29 29 30 30 32 31 30 31 31 29 28 27 24 22
9 11 11 8 8 9 8 8 10 10 11 11 12 12 12 12 12 11 10 8 5 4 10 13 14 13 11 11 12 9 7 7 5 3 3 3 1 2 1 6 10 7 6 8 8 7 7 8 9 12 15 15 16 18 21 24 26 25 24 24 24 21 21 22 22 22 27 29 30 30 28 27 28 30 31 33 34 33 32 32 32 31 30 28 26 24
10 11 10 8 8 8 9 9 9 10 11 12 12 12 13 11 11 12 11 9 7 9 11 13 16 15 14 14 14 12 9 8 6 4 3 1 1 1 2 10 10 5 6 8 8 7 7 9 9 11 15 17 17 18 21 23 23 24 25 25 22 20 19 20 20 22 22 24 27 27 24 25 28 30 33 35 36 32 29 30 31 32 31 29 28 26
11 9 7 8 8 8 10 10 9 10 11 12 12 12 13 12 11 11 11 10 12 13 13 15 18 16 15 16 16 14 11 9 8 6 3 0 1 2 8 13 9 6 8 9 8 7 7 9 11 11 14 17 18 19 20 21 22 24 28 25 19 18 20 18 17 21 23 23 25 26 26 28 29 32 34 35 34 28 25 28 31 32 32 31 29 28
10 8 6 7 8 9 10 10 10 10 10 11 11 12 13 13 12 12 13 12 13 14 13 14 15 14 15 17 17 15 12 10 9 6 2 1 1 2 5 7 8 9 11 9 8 8 8 9 11 12 15 17 17 18 19 20 22 24 28 24 18 19 22 18 17 21 25 24 22 24 26 27 29 32 34 34 31 26 24 26 29 32 33 32 31 29
9 7 7 8 9 9 10 11 10 8 10 11 9 9 9 11 12 13 14 13 15 15 13 15 14 12 14 15 18 19 16 15 14 10 5 1 2 3 6 5 9 14 14 12 10 8 9 10 9 12 15 15 15 17 18 19 21 23 25 21 18 22 24 21 21 23 22 21 21 22 24 25 26 28 30 31 29 24 22 24 27 30 32 32 31 29
8 7 7 8 8 9 10 10 9 8 11 11 7 7 8 10 12 13 14 15 16 15 14 16 15 15 13 8 12 18 20 20 18 17 11 3 1 0 4 6 10 14 14 15 14 9 9 11 10 11 12 12 13 15 15 16 18 20 22 19 19 23 22 18 21 21 21 21 21 23 25 24 22 21 21 21 24 24 22 22 24 28 30 31 31 30
5 6 6 7 9 10 9 10 8 8 11 10 7 9 10 11 13 14 15 16 16 16 16 16 15 15 9 3 9 15 20 22 22 21 13 4 6 10 11 10 11 11 10 15 18 13 11 12 11 10 10 11 12 13 13 13 15 18 20 19 21 22 18 12 16 19 20 19 20 22 22 20 16 15 16 18 22 22 20 20 22 25 28 28 29 29
6 7 7 7 9 9 9 9 9 10 12 10 8 9 11 12 14 15 15 16 16 15 15 16 14 12 6 5 9 12 14 18 21 21 14 9 11 14 16 14 12 12 10 15 19 17 14 13 12 11 11 12 12 13 12 11 12 15 16 17 19 18 12 10 16 21 21 17 17 20 18 16 15 14 17 20 21 17 15 18 19 21 23 25 26 27
9 9 10 10 9 9 9 9 10 11 12 11 11 11 12 14 15 15 15 15 14 11 13 17 14 10 6 5 11 12 12 17 20 19 16 14 12 13 14 13 12 14 12 14 19 19 17 15 14 12 13 13 11 10 10 10 10 12 13 14 17 15 9 11 16 18 20 16 13 17 18 16 17 17 18 19 18 15 15 17 17 18 20 22 24 24
12 9 9 9 8 9 10 11 12 11 11 12 12 13 13 13 13 14 15 13 9 8 11 13 12 11 8 6 11 14 15 17 19 19 17 14 9 8 12 12 14 17 17 16 18 19 19 17 17 14 13 14 9 6 7 6 7 9 9 10 14 14 9 12 13 8 11 15 15 18 21 21 21 21 19 17 16 16 17 17 17 17 17 19 20 21
12 13 11 9 7 9 10 12 12 10 10 10 11 13 13 10 8 9 10 7 6 8 9 9 11 10 5 0 4 11 14 16 18 19 17 13 10 11 13 12 11 13 15 17 16 19 20 19 20 17 14 13 8 4 4 3 3 3 2 4 8 10 9 7 7 2 4 11 14 16 18 21 21 20 18 17 18 18 18 19 18 18 17 18 18 18
7 10 11 9 9 9 8 10 10 7 8 9 9 9 8 6 6 7 5 4 6 8 9 9 10 6 0 1 4 8 12 16 18 19 17 14 15 15 13 9 8 9 12 14 14 16 18 18 20 18 14 13 9 4 2 1 1 3 6 6 4 4 6 7 7 5 3 6 9 10 12 15 16 17 19 18 17 17 17 18 19 21 21 21 19 18
5 6 8 10 11 10 7 7 9 8 9 11 10 7 7 5 5 4 3 3 5 6 8 8 6 4 0 3 7 10 12 15 14 15 15 16 17 15 11 8 10 12 13 12 12 14 17 17 18 18 14 13 10 5 6 6 5 6 8 9 8 6 7 7 8 7 5 6 7 9 14 15 12 12 15 16 15 17 17 17 19 21 23 22 22 21
6 5 4 8 10 8 7 7 7 8 9 9 10 11 13 7 2 5 8 10 9 6 7 7 3 1 2 5 8 10 11 12 11 11 13 14 15 14 11 9 11 14 13 10 10 12 13 14 16 17 15 13 10 7 9 9 9 9 9 11 12 10 7 7 9 9 8 7 9 10 13 15 13 9 7 11 15 17 17 17 18 20 21 22 24 24
5 5 5 8 10 8 9 7 6 7 7 6 7 11 13 11 8 9 10 11 10 6 9 7 6 5 5 6 8 9 9 9 9 10 11 11 12 11 10 8 9 11 10 9 8 8 9 12 13 15 15 13 10 8 11 12 12 12 12 13 15 13 9 9 11 12 12 11 11 11 10 10 14 13 10 10 13 15 16 17 18 19 19 21 23 25
5 9 8 6 7 6 7 9 9 8 9 10 10 9 9 10 12 12 6 5 7 5 7 4 6 8 7 5 8 10 10 9 9 10 10 10 10 10 9 9 10 10 10 10 9 7 7 9 11 11 12 12 11 9 11 14 15 15 16 15 17 18 14 12 12 13 15 16 14 14 13 10 11 13 12 12 13 14 15 16 17 18 19 20 21 25
7 11 9 3 3 5 6 9 10 8 7 9 12 11 7 6 9 10 7 5 6 6 4 2 7 7 6 3 7 10 12 11 9 9 10 11 10 10 10 10 10 11 10 8 9 8 5 6 6 6 8 12 11 9 10 15 18 19 19 17 19 21 20 16 14 14 18 21 19 18 18 15 13 13 13 13 14 15 15 17 18 19 19 19 20 22
7 8 7 4 7 8 6 7 10 9 7 8 12 13 9 8 8 7 6 6 7 5 3 2 3 2 2 2 5 9 14 12 9 8 8 9 10 11 12 11 9 9 8 4 4 5 3 3 3 3 6 12 11 8 11 15 20 21 21 20 20 23 23 21 19 18 20 23 24 23 23 21 18 16 15 16 17 18 17 18 20 22 23 23 22 22
5 5 7 8 12 12 6 5 9 9 7 9 12 10 10 12 9 6 7 10 8 3 3 5 2 1 1 4 4 6 11 11 10 9 7 6 7 9 11 11 8 7 6 4 3 3 1 1 3 4 8 11 10 8 12 16 20 22 23 23 22 23 24 24 23 22 23 25 26 26 27 26 24 21 21 22 22 22 21 22 24 25 25 26 25 24
5 6 10 11 12 11 7 6 7 7 7 9 10 7 7 10 7 5 5 7 7 5 5 8 3 3 1 3 2 2 7 9 10 9 5 4 5 7 9 9 7 4 4 5 4 4 2 2 2 3 5 9 10 9 13 16 20 23 25 25 24 24 24 24 24 24 24 25 26 27 28 28 27 26 25 24 21 19 20 21 22 23 24 25 25 26
8 8 10 11 11 11 9 7 6 5 5 7 8 5 4 5 6 6 4 3 7 9 8 11 6 3 3 0 1 4 6 8 8 6 4 4 4 7 7 6 6 4 4 5 3 3 3 3 2 2 1 5 6 8 13 15 18 23 26 26 24 24 25 25 25 25 24 25 26 27 26 27 27 27 26 25 22 20 19 19 18 19 19 20 22 25
7 5 8 12 11 9 6 3 2 3 3 4 5 3 4 4 4 5 6 6 7 5 4 7 5 3 4 4 5 6 7 7 5 4 3 2 3 5 7 6 5 3 4 4 3 2 3 3 2 3 3 2 2 5 12 15 17 20 23 25 25 24 25 25 26 26 25 26 27 27 26 26 26 26 25 24 24 23 23 23 22 21 20 20 20 20
5 5 9 11 9 6 4 3 4 4 3 3 3 1 3 4 4 5 6 8 8 3 1 4 3 2 4 6 7 8 8 7 6 4 4 3 3 4 5 6 6 5 4 4 3 2 3 4 3 5 5 3 1 3 9 14 15 18 21 23 23 23 23 24 25 26 26 26 27 27 27 26 26 26 25 25 25 25 25 25 26 26 26 25 23 22
6 7 9 8 7 6 5 5 7 7 5 4 4 3 3 4 4 5 6 7 7 4 4 4 3 4 5 5 6 7 8 8 7 6 5 5 4 4 4 3 5 6 5 4 4 4 4 4 4 5 6 5 4 3 7 12 14 15 18 20 21 21 20 20 22 23 24 24 25 25 25 26 26 25 26 26 25 26 27 27 27 27 26 26 25 24
5 7 7 6 7 7 7 7 7 7 7 5 5 5 4 4 5 5 6 7 6 6 5 3 3 5 6 6 7 7 6 7 7 7 6 6 5 4 3 4 4 6 6 4 4 4 4 4 4 4 5 4 4 4 6 12 15 15 15 16 18 18 18 17 18 20 21 22 22 23 23 23 24 24 25 25 25 25 26 25 25 25 24 24 24 24
6 8 7 6 7 7 7 7 7 6 6 6 6 6 5 5 5 5 7 6 7 8 5 3 5 5 5 5 7 8 7 7 7 7 6 6 5 4 4 4 4 3 2 1 2 3 3 5 5 5 4 3 3 4 3 8 15 17 16 16 16 16 16 16 15 16 18 19 21 22 22 22 22 22 23 24 24 24 24 23 23 24 23 23 24 24
7 9 8 7 9 8 7 7 7 6 6 6 6 6 5 6 6 6 7 6 6 8 6 7 7 6 6 5 6 10 8 7 6 7 7 6 5 4 3 2 1 3 4 2 2 3 4 4 3 3 3 2 2 3 2 4 11 15 14 14 15 15 16 16 16 16 17 18 19 21 22 22 22 23 23 24 24 24 24 24 24 24 24 25 25 25
8 8 8 8 9 9 9 8 7 7 7 6 6 6 6 6 6 6 7 7 7 8 8 8 7 7 9 5 6 10 8 5 6 8 8 7 6 5 4 2 2 3 2 3 3 2 4 3 2 1 1 1 1 2 2 3 6 10 11 11 12 13 14 15 16 16 17 18 19 20 21 22 22 23 23 24 24 25 26 27 26 26 27 27 27 27
8 8 8 9 10 11 9 8 8 8 7 7 7 6 6 5 5 5 5 6 7 7 7 7 4 4 5 2 7 9 7 5 6 8 8 7 6 5 4 3 3 3 4 5 4 4 3 3 3 3 4 2 4 1 2 3 3 6 7 7 8 9 11 13 14 15 16 17 18 19 20 20 21 22 22 22 23 23 24 25 26 27 28 29 29 29
8 9 9 8 10 11 8 7 8 8 8 10 9 5 4 4 4 4 3 4 5 5 6 5 2 2 4 4 5 6 6 5 6 7 7 6 6 6 4 4 5 6 6 5 6 5 3 2 3 3 5 2 3 1 1 3 2 3 4 5 5 6 7 9 11 13 14 15 16 16 17 18 19 19 20 20 21 21 22 23 24 25 27 28 29 30
9 10 10 8 9 11 7 5 7 8 8 8 5 3 1 2 3 4 4 4 6 5 4 3 1 2 4 2 2 5 5 4 5 6 6 6 6 7 5 6 7 8 8 6 5 4 3 2 1 1 3 4 3 2 2 3 2 2 2 3 3 4 5 6 7 9 10 11 12 13 14 15 16 17 18 19 20 20 21 22 22 23 25 27 29 30
8 10 11 9 9 10 8 7 8 9 6 3 4 4 2 2 3 5 4 5 7 6 5 4 2 3 2 1 4 6 5 4 5 6 6 6 7 6 6 7 8 8 8 7 5 3 4 3 3 3 4 4 3 2 4 3 3 3 3 2 3 4 4 5 5 6 7 8 9 10 11 12 13 14 15 16 18 19 20 20 21 22 24 25 27 29
8 10 10 8 10 11 11 9 7 5 3 2 4 4 3 2 4 5 6 6 6 7 7 5 4 5 3 4 8 9 7 6 6 7 6 6 6 5 7 9 9 8 7 6 4 4 5 6 7 8 8 6 3 3 4 4 4 5 4 4 4 4 4 5 5 5 6 6 7 8 9 10 11 12 13 14 15 16 17 18 19 21 22 24 25 27
9 9 9 9 10 11 10 9 6 5 4 2 3 3 2 2 3 5 7 7 5 5 5 4 4 4 3 4 10 11 9 8 6 5 6 6 5 6 8 9 11 10 8 5 5 7 7 7 7 8 9 7 4 3 5 6 6 6 7 6 6 6 6 6 6 6 6 7 7 8 9 10 10 11 12 13 14 15 16 17 18 19 20 21 23 24
11 10 9 8 9 9 10 10 9 8 4 6 4 2 1 1 3 5 8 7 4 4 4 3 4 4 3 5 8 10 10 9 6 7 9 7 7 8 8 8 10 11 8 7 8 9 9 10 11 11 11 9 7 6 6 8 9 9 9 8 7 8 8 8 8 7 8 8 9 10 11 11 11 12 13 13 14 15 16 17 18 19 19 20 21 22
12 11 9 8 8 8 10 10 9 8 4 6 7 6 4 4 6 6 8 7 4 4 5 4 3 4 5 6 8 9 7 6 7 11 13 12 12 11 8 6 7 7 6 7 6 5 7 8 10 11 11 10 8 8 8 8 10 12 12 10 9 9 9 9 10 9 10 10 11 11 11 11 11 11 11 11 12 13 14 15 16 17 17 18 19 20
13 12 11 10 10 9 11 10 8 7 4 3 6 5 8 10 8 6 6 4 2 3 5 4 3 5 6 7 13 14 8 5 6 9 14 14 13 10 5 5 8 6 5 5 3 2 5 10 14 11 8 7 6 7 8 8 9 12 13 11 11 11 11 11 11 11 10 10 10 9 8 7 7 6 6 7 7 8 9 10 11 12 13 14 15 16
14 13 13 13 12 11 11 12 11 9 6 5 6 7 9 9 7 5 4 2 4 3 4 3 3 5 6 9 14 14 7 4 5 8 10 10 9 8 6 6 6 3 3 4 4 4 4 6 11 8 3 4 5 4 4 5 6 9 11 11 10 11 11 10 10 9 8 7 6 5 4 3 3 2 2 2 3 3 4 5 6 7 9 10 11 12
14 14 14 14 14 13 13 13 14 10 7 8 11 11 10 8 5 4 2 2 3 5 6 5 6 4 6 10 13 10 8 10 10 8 9 9 7 6 4 2 1 2 2 9 11 9 6 3 4 6 6 4 3 1 1 2 4 5 6 7 7 8 8 7 7 5 4 4 3 3 2 1 0 1 1 2 2 2 2 2 3 5 6 7 9 10
13 14 14 14 15 14 14 14 13 11 11 12 13 12 9 5 3 5 5 4 5 7 8 8 6 4 7 10 11 10 12 15 14 12 12 9 5 6 6 2 4 6 11 13 12 12 10 5 5 8 8 5 2 1 1 2 3 3 4 4 4 5 5 4 4 3 3 3 2 2 1 1 2 3 3 3 3 3 3 3 3 3 4 5 6 7
13 13 13 14 15 13 14 14 12 9 10 12 11 10 7 3 4 4 3 7 10 9 7 7 4 6 9 9 10 12 13 14 15 14 13 9 8 10 9 4 4 7 8 6 6 10 10 6 4 5 5 3 1 1 2 2 2 3 3 3 4 4 4 4 3 3 3 3 3 2 2 2 2 2 2 2 2 3 3 3 4 4 5 5 6 6
13 14 13 12 13 13 12 10 7 6 7 9 7 5 3 4 7 6 6 3 7 5 4 8 8 4 7 10 10 13 13 11 13 13 12 11 10 8 6 5 7 7 4 4 7 10 8 6 6 5 5 4 3 2 3 3 3 3 3 3 4 4 4 4 4 4 4 3 3 2 1 1 1 1 1 2 2 3 4 4 5 5 6 6 6 6
12 14 14 11 12 14 12 7 5 6 10 12 10 7 6 7 9 10 12 8 3 4 6 6 6 7 8 10 9 10 11 10 11 10 7 8 10 12 11 10 10 8 6 6 8 10 8 6 6 5 5 5 4 4 4 4 4 4 4 4 4 4 4 4 3 3 3 3 2 1 1 1 1 2 3 3 4 4 5 6 6 6 7 7 7 7
10 11 14 13 13 14 13 10 9 9 10 12 11 9 9 9 9 10 11 8 5 8 11 9 10 10 11 10 11 11 12 12 11 11 7 8 11 15 15 10 7 6 6 5 5 6 6 4 3 5 7 7 6 6 6 6 6 5 5 5 5 4 4 4 3 3 3 3 2 2 2 3 3 4 5 5 5 6 6 7 7 7 8 8 8 8
13 13 14 13 13 12 11 10 9 10 10 11 11 10 10 11 9 8 7 7 8 6 10 12 11 7 10 10 12 10 10 11 11 11 10 10 12 11 9 8 7 7 6 5 5 5 5 4 2 4 7 7 8 8 8 7 7 7 6 6 6 5 5 5 5 5 4 4 4 4 4 5 5 6 6 7 7 8 8 8 9 9 9 9 9 10
10 12 13 12 13 13 12 10 8 10 11 11 10 10 9 10 11 9 8 9 11 8 7 13 11 4 8 9 13 13 9 10 12 12 11 9 9 8 7 9 10 9 8 8 8 7 6 7 9 8 6 6 7 8 7 8 9 8 7 8 7 6 7 7 6 6 6 6 6 6 6 7 7 7 8 8 9 9 10 10 10 10 11 11 11 11
11 10 11 9 10 13 14 13 11 12 15 14 12 11 10 10 12 10 8 11 14 11 8 12 9 3 6 10 11 15 10 10 12 12 10 8 7 7 9 10 11 11 10 10 9 9 7 7 10 11 9 6 5 5 6 8 9 9 9 9 9 8 8 8 8 8 8 8 8 8 7 8 8 8 9 10 10 10 10 11 11 11 11 11 12 12
15 12 11 11 11 12 12 11 11 13 13 12 10 9 8 10 14 13 10 10 11 11 11 13 12 9 9 10 9 7 7 11 13 12 9 8 7 7 8 9 9 9 9 10 10 9 8 8 8 9 9 8 7 7 7 9 10 10 9 10 10 9 9 9 9 9 9 9 9 9 9 9 9 9 10 10 11 10 10 11 12 12 12 12 12 13
15 13 12 13 14 13 11 10 10 11 11 11 10 9 10 12 14 14 13 12 12 13 15 14 13 12 11 9 8 6 8 11 12 10 9 9 10 9 9 10 9 8 8 8 8 7 7 7 8 8 8 8 9 9 9 10 10 10 10 11 11 11 11 10 10 11 10 10 10 9 10 10 10 10 10 10 10 10 10 10 10 11 12 12 12 12
Wind_Direction
248 253 243 238 244 246 250 249 261 314 314 279 283 270 267 276 254 229 182 171 216 236 250 246 243 236 213 209 213 224 245 215 238 245 131 34 74 107 100 276 281 288 301 320 335 332 300 266 245 242 242 246 250 243 240 235 231 233 229 228 228 225 228 230 239 242 225 210 206 205 201 200 204 206 206 205 202 201 202 203 201 199 200 199 197 194
253 248 250 244 248 272 278 263 276 291 279 274 278 267 257 259 258 241 229 239 220 231 259 254 253 245 222 228 229 228 235 209 216 215 180 157 104 79 96 265 277 284 299 313 317 308 297 285 258 245 239 238 240 240 238 234 233 233 231 234 233 224 226 224 219 223 219 210 209 211 206 201 204 206 204 205 205 200 199 204 202 200 202 200 199 197
251 246 259 255 246 267 270 261 271 272 262 261 259 258 258 255 253 253 259 256 206 239 267 251 246 242 236 238 228 224 230 220 215 214 212 203 171 59 78 263 275 292 315 312 313 310 289 283 275 263 254 245 242 241 238 234 235 236 236 240 239 229 226 226 216 209 211 213 215 216 210 204 203 203 204 208 211 202 194 200 202 202 204 201 201 200
256 258 263 250 249 261 258 255 260 261 256 253 254 255 256 257 257 256 258 259 249 251 258 260 259 249 240 235 225 221 225 218 207 201 196 193 195 84 282 276 281 303 309 298 305 308 284 271 270 270 264 254 248 245 240 238 237 239 242 246 247 241 235 235 226 215 215 216 218 219 215 209 206 205 206 210 216 209 193 196 202 203 205 203 202 203
254 259 252 238 251 258 255 251 246 254 255 248 252 258 261 259 257 258 255 258 261 253 247 261 271 261 238 227 219 212 211 210 204 204 215 1 11 309 289 281 278 281 283 283 291 295 279 263 258 265 266 258 252 248 245 244 239 238 241 245 256 253 246 249 235 218 216 215 221 222 214 211 210 210 210 211 218 213 194 197 203 204 206 206 205 205
258 246 240 245 251 252 255 254 246 255 265 261 255 262 268 259 250 254 253 250 252 252 245 243 256 258 238 224 215 208 204 206 201 200 232 273 115 28 331 292 276 276 280 281 279 280 278 267 259 259 263 263 260 254 251 246 240 239 240 244 254 247 241 252 247 228 219 213 217 219 213 213 214 214 213 213 217 208 195 201 205 206 208 208 208 208
258 239 239 254 257 254 253 256 256 259 267 268 262 264 265 250 245 249 249 249 247 250 249 234 237 251 244 229 221 216 207 202 196 181 165 164 162 68 27 338 287 277 281 283 275 272 270 265 265 263 263 266 264 259 257 251 247 245 243 244 248 243 242 243 234 227 221 211 211 217 218 216 216 216 212 211 212 199 196 209 208 209 211 210 211 210
249 241 244 253 260 261 257 259 264 262 259 259 260 266 262 251 251 251 250 251 249 255 256 238 236 252 261 248 218 205 193 195 202 194 177 152 196 266 354 333 299 286 289 284 274 269 263 258 263 267 269 269 261 257 259 258 255 250 246 246 246 250 257 244 221 214 213 209 209 215 216 210 209 215 212 214 215 196 190 207 211 212 214 214 215 214
262 248 250 257 259 261 263 260 258 260 257 258 268 267 259 256 255 255 255 255 254 258 256 244 242 251 252 159 172 189 195 206 217 218 214 228 254 261 271 277 285 287 293 284 272 267 260 255 257 259 265 270 262 256 252 251 253 249 245 246 246 256 270 250 218 212 209 208 211 207 203 198 198 213 219 223 223 203 186 200 212 215 216 217 219 219
272 254 255 264 261 258 265 261 253 258 255 257 276 274 265 262 258 256 257 259 260 257 253 250 246 246 234 154 170 186 202 214 218 222 232 253 264 273 272 266 270 273 277 277 271 269 264 256 255 254 257 266 267 262 254 247 251 249 244 244 245 255 269 245 227 222 211 203 203 195 187 187 191 206 217 215 214 207 195 204 215 218 218 219 220 223
261 258 259 262 262 262 268 267 256 255 256 259 270 275 272 261 254 255 255 258 262 258 256 257 249 242 245 210 193 193 205 217 220 222 234 252 267 280 271 257 259 262 265 268 267 269 268 260 256 254 254 260 267 270 264 257 257 256 250 247 247 254 250 214 217 222 210 192 174 169 169 179 190 198 207 204 200 203 209 213 216 218 218 219 220 224
245 241 249 245 255 269 269 270 264 253 254 261 264 269 272 265 254 249 246 243 251 259 259 266 264 252 246 203 193 209 223 230 232 228 232 246 258 270 265 258 259 262 264 263 263 266 266 262 259 256 253 254 258 271 273 271 269 267 258 248 251 263 251 198 190 193 193 180 160 155 164 178 188 191 193 195 196 200 209 215 214 212 214 217 219 221
256 244 243 228 243 272 269 269 265 247 245 254 259 262 265 270 258 244 244 239 243 260 266 290 295 273 266 40 203 222 227 228 232 229 232 244 250 259 268 269 267 269 267 262 261 263 263 262 260 259 255 248 245 256 271 278 284 275 236 225 250 269 270 234 212 212 187 183 172 164 173 184 188 186 183 184 192 198 205 212 211 207 210 213 214 215
285 250 237 229 241 250 254 272 273 258 255 251 252 268 275 284 272 246 250 268 257 265 277 292 294 277 21 25 227 220 223 225 228 231 235 242 247 255 266 272 276 275 269 264 262 262 261 261 261 262 258 246 238 223 210 199 180 145 152 174 204 241 255 263 256 246 233 212 199 189 199 198 185 184 184 179 186 196 201 208 210 208 211 215 216 216
285 253 230 236 236 223 227 273 283 281 278 258 248 273 287 288 297 274 258 275 279 291 290 280 278 279 263 188 203 211 227 234 235 235 235 238 245 252 255 263 274 273 271 269 264 262 262 262 262 263 260 248 238 207 166 167 172 155 152 163 164 172 204 230 236 227 224 228 218 214 224 218 195 191 191 180 186 200 202 205 207 210 215 217 218 218
267 269 257 237 229 233 249 272 288 281 276 262 250 263 264 247 275 292 277 276 285 296 274 246 177 204 218 171 186 205 222 233 233 233 236 238 244 248 250 257 268 272 274 269 263 263 264 263 261 262 260 248 236 197 161 165 173 169 164 164 165 173 191 207 216 223 228 223 210 214 226 219 205 206 205 191 199 209 210 210 210 212 216 218 220 221
278 291 283 226 220 240 248 258 287 274 270 279 269 265 258 237 238 272 284 283 279 271 261 244 149 157 200 182 192 206 220 234 231 228 233 237 240 241 243 247 256 269 273 262 257 258 262 266 264 262 262 254 238 199 169 171 174 173 171 169 171 174 180 192 204 216 226 223 207 208 222 212 197 198 203 205 209 215 218 220 220 220 221 223 228 231
312 305 290 233 225 240 240 267 283 263 265 278 278 283 276 248 245 256 265 274 262 252 271 266 139 161 192 201 224 222 219 228 226 222 222 225 232 232 231 235 243 256 261 257 263 267 266 272 268 261 261 256 238 205 182 178 178 175 174 176 178 177 178 187 199 209 218 220 210 203 210 208 197 198 204 206 208 214 218 221 223 224 225 226 229 235
319 307 294 242 243 252 253 289 287 253 248 263 269 284 293 267 253 246 235 259 270 257 252 151 134 162 184 214 254 230 208 214 222 222 223 224 225 221 220 228 243 256 262 262 268 269 270 279 274 251 248 254 241 209 185 178 179 180 180 182 184 184 186 189 196 205 212 216 212 204 206 208 208 214 217 213 212 217 220 222 223 222 223 225 229 236
318 306 294 289 302 296 285 293 281 259 256 266 270 273 261 252 258 248 241 277 296 288 268 211 153 169 211 269 270 220 204 213 227 225 222 222 220 218 218 220 238 261 267 263 253 254 260 280 269 189 208 244 242 199 171 174 180 183 185 189 189 188 191 193 196 202 207 211 211 207 206 208 211 220 227 227 224 222 220 221 222 221 222 225 230 236
308 288 287 302 312 306 292 275 271 269 282 289 289 280 242 235 247 248 250 267 280 283 288 286 267 121 308 309 298 222 201 208 226 225 220 226 228 227 221 212 220 251 263 250 213 205 199 207 216 187 198 232 236 187 166 174 180 183 187 193 195 194 195 196 198 200 201 205 209 210 210 211 214 219 225 230 231 227 222 219 218 220 222 226 231 235
311 298 293 302 309 302 296 305 295 286 287 288 293 285 234 225 237 252 254 264 272 263 284 307 314 127 115 337 342 197 189 207 228 225 224 251 239 223 216 207 203 214 254 257 216 175 138 119 178 187 209 235 234 194 174 172 177 185 191 193 196 198 198 199 200 200 200 201 205 209 212 214 217 219 223 229 234 234 230 225 222 223 221 222 227 231
298 303 298 296 300 297 299 322 331 316 297 280 277 274 250 230 227 242 262 304 295 284 299 319 318 191 186 239 159 186 203 224 231 219 233 266 231 207 204 200 196 194 232 257 229 164 127 95 112 100 31 267 244 195 178 174 177 187 195 198 198 199 200 202 203 203 202 202 204 207 210 213 216 218 221 226 230 234 238 237 236 234 229 226 229 230
299 317 319 306 302 295 275 260 290 325 325 289 267 256 267 269 242 253 272 278 281 290 311 314 305 226 212 205 201 215 227 233 224 211 226 221 178 196 200 200 198 192 220 242 239 169 123 106 118 114 82 353 316 172 169 173 178 184 195 203 203 202 203 204 206 206 205 205 205 206 208 211 214 217 219 223 227 232 236 238 241 245 244 245 247 246
307 323 325 318 316 309 276 263 307 333 353 321 302 292 272 284 293 294 289 267 261 276 310 283 293 276 236 221 221 227 221 218 218 215 206 169 145 155 179 206 217 216 222 226 231 213 154 152 158 147 146 140 91 135 156 165 177 183 190 201 204 204 207 207 207 208 208 209 208 208 211 214 215 218 220 222 226 230 233 236 239 243 247 250 253 257
289 305 318 322 327 334 332 332 331 329 326 313 307 310 299 289 281 286 294 278 271 307 329 308 334 333 285 243 228 220 206 205 211 213 205 197 186 157 157 203 223 234 244 229 223 228 202 195 183 153 154 153 142 137 146 154 166 176 185 196 203 206 209 209 210 210 211 212 212 213 215 218 219 221 223 225 228 231 234 238 241 243 247 251 252 255
277 296 303 305 307 322 331 328 326 319 312 308 304 303 299 290 283 280 277 273 287 315 322 334 347 317 281 240 222 219 207 199 206 220 222 216 217 216 214 219 225 238 245 238 242 248 234 237 229 182 162 153 150 152 154 154 155 161 173 187 199 208 213 215 215 215 216 216 217 218 220 222 224 226 227 228 230 233 235 238 243 246 249 252 254 256
293 291 291 298 295 304 319 318 319 317 310 307 303 302 297 288 286 279 268 272 296 298 290 340 339 305 281 254 226 218 210 199 211 230 234 234 236 237 231 228 238 241 199 194 285 287 263 259 249 213 183 166 154 145 160 162 154 154 164 174 188 203 214 223 226 225 226 226 225 227 227 229 232 233 233 235 235 237 239 241 245 250 253 257 259 260
297 289 290 299 294 295 301 302 307 308 307 309 305 303 303 293 283 274 270 274 285 279 285 325 327 309 313 301 222 207 209 212 215 212 220 237 229 207 212 228 322 51 88 153 231 276 274 266 256 227 194 178 160 139 162 180 157 155 162 168 177 191 205 220 230 235 237 237 238 238 237 238 240 241 242 244 245 247 250 251 252 255 257 259 262 264
287 285 293 298 295 295 291 290 294 294 296 304 303 304 307 298 285 277 275 274 274 277 287 303 304 300 307 295 192 187 198 207 199 192 212 236 215 195 207 197 88 73 126 198 201 228 263 248 210 188 119 333 276 149 171 206 166 161 166 168 174 185 196 209 222 232 239 243 246 247 248 248 249 250 250 251 252 253 255 256 258 259 260 262 265 267
279 285 300 302 297 295 287 279 281 283 288 295 298 305 308 304 300 290 280 279 281 284 290 298 308 301 287 215 158 169 185 202 200 195 207 215 202 208 208 161 152 165 197 228 221 202 221 233 209 149 111 336 301 183 192 235 188 165 168 173 180 187 196 205 213 223 232 240 246 249 252 253 254 255 255 255 255 256 255 256 258 259 261 263 265 267
268 280 299 302 297 299 297 285 282 280 282 284 284 290 297 300 312 309 297 295 294 292 297 306 321 161 167 151 148 167 183 197 198 204 214 204 209 230 203 159 183 189 190 222 234 218 203 234 254 150 125 203 264 167 210 249 228 180 170 175 193 200 205 209 212 220 227 233 240 246 251 255 257 258 260 260 260 260 259 259 259 259 261 262 264 265
259 271 284 288 293 296 297 298 296 287 282 274 243 211 274 301 309 313 309 303 302 295 287 305 339 153 159 149 170 186 198 207 201 212 222 209 221 234 193 169 198 199 190 200 217 222 192 174 245 168 155 203 219 192 239 243 226 226 204 192 213 216 217 219 218 224 229 232 239 245 250 256 260 263 265 266 266 266 265 264 263 262 262 262 263 263
258 269 278 282 288 290 299 318 305 283 279 261 200 213 266 281 289 308 301 289 296 290 271 268 264 234 225 241 232 216 204 205 211 216 215 208 221 225 190 185 203 204 204 209 202 197 205 215 260 256 225 217 198 209 242 231 210 233 240 237 243 238 234 234 231 233 238 241 245 249 254 258 263 268 271 274 275 275 275 274 272 270 267 265 265 264
258 268 275 279 278 283 296 300 285 277 302 286 249 268 281 243 265 294 295 288 285 276 271 266 249 258 274 252 239 232 212 207 217 217 219 224 226 213 188 194 207 206 208 221 213 198 225 252 271 271 261 252 237 240 250 238 219 226 228 233 244 246 247 248 248 247 249 252 255 258 261 263 265 269 273 276 279 281 281 281 279 278 276 274 272 271
251 261 270 277 277 281 288 279 278 330 352 230 242 306 330 318 321 315 310 309 284 248 257 262 244 257 282 247 243 248 249 248 235 207 213 220 212 206 203 207 219 216 204 213 225 217 222 236 245 260 265 253 235 246 250 230 217 223 227 226 231 240 245 251 255 258 262 267 269 269 270 270 269 270 270 272 274 276 278 280 280 280 280 279 279 278
243 253 261 271 271 271 278 280 289 308 277 196 204 261 232 293 321 306 307 312 284 241 251 259 246 241 238 237 247 261 271 271 255 227 225 222 213 221 227 233 241 236 217 209 221 230 237 236 238 254 264 253 233 235 248 230 214 223 233 229 229 238 245 253 261 266 273 277 279 280 278 277 276 274 273 273 273 273 274 276 277 278 279 280 280 281
236 243 246 258 267 270 280 285 286 291 265 189 196 226 257 308 321 311 307 305 279 241 235 232 230 230 226 226 236 253 280 299 275 243 226 221 231 238 234 234 249 256 241 221 224 269 291 288 283 277 272 265 245 232 247 241 218 222 235 236 236 244 249 257 265 271 277 280 282 283 283 283 283 280 278 275 273 273 273 274 275 277 278 280 281 281
233 238 237 246 262 272 281 280 271 285 301 180 188 246 305 324 333 323 300 283 175 197 227 232 246 238 221 223 237 246 266 313 286 235 209 208 227 240 238 252 264 273 277 262 254 280 293 314 320 306 279 280 271 238 246 252 225 223 235 239 242 250 256 265 272 276 281 282 281 283 283 284 284 281 278 276 273 273 273 274 276 279 282 285 286 286
225 232 233 238 250 256 264 270 273 281 283 243 239 276 307 323 336 329 295 209 156 203 232 232 267 247 211 222 242 249 252 248 226 205 202 214 233 237 234 254 275 311 326 277 240 216 238 318 337 328 297 298 294 250 239 247 224 224 237 240 245 254 260 267 273 275 277 275 274 274 273 275 284 288 288 290 287 284 281 284 291 295 297 297 298 298
220 226 228 231 243 247 247 260 273 275 262 253 259 273 296 319 321 291 263 176 187 242 248 255 278 262 202 217 239 240 222 223 224 226 245 257 264 268 264 244 77 54 274 253 244 238 244 290 298 266 260 283 297 268 216 226 224 233 243 245 249 256 260 263 265 264 261 256 251 246 239 228 141 90 65 56 39 5 350 338 324 320 317 314 314 313
221 225 226 226 237 247 247 253 267 268 255 253 259 269 291 316 279 258 276 291 285 279 280 284 283 234 196 210 230 231 223 230 240 251 265 274 267 260 263 227 161 193 221 239 249 242 235 235 240 243 251 266 286 274 237 207 221 239 240 238 242 244 246 247 243 235 229 222 217 200 169 131 105 93 80 71 61 42 31 22 5 355 351 344 337 332
221 223 227 226 229 240 244 245 254 259 246 241 253 270 282 283 268 271 292 310 313 310 306 310 289 208 196 197 213 228 233 243 254 256 258 261 244 240 252 244 193 206 213 226 256 248 236 241 252 236 232 233 228 239 227 197 210 236 230 221 222 220 220 219 211 207 207 199 191 177 150 119 96 83 71 61 49 30 15 11 6 1 357 353 351 348
226 222 227 230 227 230 239 246 254 256 244 241 252 269 266 255 257 236 212 270 332 334 305 317 317 261 191 183 210 235 241 252 268 260 240 226 217 223 248 228 203 213 213 194 228 248 254 263 260 242 235 235 219 210 224 217 216 225 222 220 221 217 215 210 198 196 202 197 185 175 152 121 90 41 4 353 353 350 346 346 349 349 346 345 344 344
230 224 228 238 234 227 236 266 289 268 263 265 257 237 232 252 257 245 236 239 289 292 264 267 271 250 211 189 207 240 244 249 266 260 221 190 192 201 212 216 211 212 204 196 222 243 251 256 256 250 248 248 242 236 232 224 219 221 221 222 224 225 225 220 211 207 208 205 206 213 243 285 296 302 307 315 322 325 329 332 332 334 335 336 337 338
245 238 234 242 243 237 243 264 270 261 269 279 271 249 246 255 253 254 255 235 220 274 274 239 224 251 256 222 199 212 226 231 248 254 218 172 190 209 214 218 222 214 202 204 228 236 228 231 272 279 262 250 248 251 246 237 230 225 221 222 226 233 238 237 236 236 233 238 251 263 279 285 293 302 304 308 314 316 318 321 321 323 326 327 330 333
258 251 237 237 243 245 249 254 252 247 248 257 266 269 274 275 258 249 257 225 196 235 277 256 236 261 277 236 193 197 234 231 226 242 234 192 191 209 216 216 223 219 209 211 217 217 210 200 227 281 273 253 242 245 246 242 235 227 225 229 230 235 243 244 247 252 251 255 263 269 280 288 292 298 300 304 308 310 312 315 317 318 319 321 325 328
251 240 231 232 238 241 247 251 258 266 263 255 250 248 255 267 263 255 257 239 212 201 252 260 246 261 297 255 186 176 225 242 221 230 242 218 195 198 206 213 220 220 218 219 221 227 228 202 191 205 233 243 243 251 258 254 242 231 229 233 231 234 241 243 246 253 254 257 262 266 275 284 289 293 298 303 306 308 311 312 313 314 315 317 321 323
256 236 227 236 246 247 251 253 254 267 279 282 274 257 242 237 241 241 241 240 230 212 227 255 250 235 294 272 208 180 196 229 227 229 236 226 205 199 207 216 221 222 225 230 232 236 239 220 206 215 230 236 236 249 261 259 247 235 233 238 236 235 241 243 244 250 253 255 260 266 270 277 285 291 295 298 301 304 308 309 310 311 313 315 318 319
264 249 234 241 250 250 254 258 253 251 256 260 263 266 256 236 230 224 216 229 242 234 231 248 251 225 218 234 230 213 218 225 226 225 220 218 220 213 213 222 230 231 231 231 230 233 236 233 232 238 243 242 235 232 237 246 246 238 235 243 244 240 243 246 246 249 254 257 261 267 271 276 282 286 290 294 297 300 305 308 310 311 312 314 316 316
251 245 240 244 247 247 246 249 252 250 245 245 249 252 245 240 241 238 224 218 232 239 235 239 248 247 235 215 196 213 245 243 232 222 214 220 228 225 222 228 233 235 236 235 236 242 244 244 250 255 255 256 254 246 240 246 250 240 234 242 250 249 248 250 250 251 255 259 263 268 270 273 277 280 284 287 290 293 297 300 302 305 307 309 310 313
Height
3117 3117 3117 3116 3115 3115 3115 3115 3114 3114 3114 3114 3114 3114 3114 3113 3112 3113 3113 3113 3116 3118 3119 3119 3119 3119 3119 3120 3122 3123 3123 3124 3124 3123 3124 3125 3124 3123 3122 3121 3121 3121 3122 3123 3124 3125 3125 3125 3125 3125 3124 3125 3125 3125 3126 3126 3126 3125 3125 3124 3124 3126 3127 3127 3128 3133 3137 3141 3144 3147 3149 3151 3154 3155 3157 3160 3160 3160 3163 3166 3167 3170 3171 3172 3174 3176
3117 3116 3116 3115 3115 3115 3115 3115 3114 3115 3115 3115 3116 3115 3115 3114 3112 3112 3113 3113 3114 3117 3119 3118 3118 3117 3118 3120 3122 3123 3123 3123 3124 3123 3123 3124 3122 3122 3121 3120 3120 3121 3122 3122 3123 3124 3124 3124 3124 3123 3123 3124 3124 3123 3123 3123 3122 3122 3122 3122 3123 3124 3125 3125 3126 3130 3135 3138 3141 3143 3145 3148 3151 3154 3157 3159 3159 3158 3160 3163 3165 3168 3170 3171 3173 3174
3116 3115 3115 3115 3115 3115 3115 3115 3115 3115 3116 3116 3116 3115 3114 3113 3112 3112 3113 3114 3114 3116 3118 3117 3117 3117 3118 3120 3121 3122 3123 3122 3123 3123 3122 3122 3122 3121 3120 3119 3119 3121 3121 3121 3121 3122 3123 3122 3122 3122 3121 3122 3122 3121 3121 3120 3119 3121 3122 3122 3122 3124 3125 3125 3126 3128 3133 3138 3140 3143 3145 3148 3150 3153 3155 3157 3159 3157 3157 3160 3163 3166 3168 3170 3172 3173
3115 3115 3115 3115 3115 3115 3115 3115 3115 3115 3115 3115 3115 3114 3113 3112 3113 3113 3114 3114 3114 3116 3117 3116 3115 3114 3117 3119 3120 3121 3122 3122 3122 3122 3121 3121 3121 3121 3119 3118 3119 3120 3120 3120 3121 3121 3122 3121 3121 3121 3120 3120 3120 3120 3120 3118 3119 3121 3123 3123 3124 3127 3127 3126 3127 3129 3133 3138 3141 3143 3146 3148 3150 3151 3152 3154 3157 3156 3154 3157 3162 3164 3166 3168 3170 3171
3114 3114 3114 3115 3115 3115 3114 3114 3115 3114 3114 3113 3113 3113 3113 3112 3113 3114 3115 3115 3115 3115 3115 3116 3114 3112 3114 3117 3118 3120 3121 3121 3122 3121 3121 3121 3121 3120 3118 3118 3118 3119 3119 3120 3120 3121 3121 3120 3120 3119 3118 3118 3118 3119 3119 3118 3119 3121 3122 3123 3126 3129 3128 3125 3126 3129 3131 3135 3139 3141 3143 3145 3147 3149 3150 3152 3155 3155 3153 3156 3160 3163 3165 3167 3168 3169
3113 3114 3114 3114 3114 3114 3114 3113 3114 3113 3113 3112 3113 3113 3113 3113 3114 3115 3115 3115 3115 3113 3114 3115 3114 3111 3112 3114 3116 3117 3119 3121 3121 3121 3121 3122 3121 3120 3119 3117 3118 3119 3119 3119 3120 3120 3120 3119 3118 3118 3116 3116 3117 3117 3118 3118 3119 3120 3121 3123 3126 3127 3127 3127 3127 3128 3130 3132 3136 3139 3142 3143 3145 3147 3148 3151 3155 3154 3154 3157 3160 3162 3164 3165 3167 3168
3113 3113 3114 3114 3113 3114 3113 3113 3113 3113 3113 3112 3112 3113 3113 3113 3114 3114 3113 3113 3112 3111 3112 3113 3112 3109 3110 3112 3113 3114 3117 3119 3117 3118 3120 3121 3120 3119 3119 3117 3118 3119 3118 3118 3119 3119 3119 3118 3117 3116 3115 3116 3116 3116 3117 3117 3118 3119 3121 3123 3124 3125 3126 3128 3128 3128 3130 3132 3134 3138 3140 3142 3144 3146 3148 3151 3154 3152 3154 3158 3159 3161 3163 3164 3166 3168
3112 3113 3113 3113 3113 3113 3113 3112 3112 3113 3113 3112 3112 3112 3112 3112 3112 3112 3112 3111 3110 3110 3109 3110 3110 3109 3108 3110 3111 3112 3115 3116 3114 3115 3117 3119 3119 3118 3118 3117 3118 3118 3117 3116 3117 3118 3118 3118 3116 3115 3115 3115 3115 3114 3116 3117 3117 3118 3120 3122 3123 3124 3125 3128 3128 3128 3130 3131 3132 3135 3137 3140 3142 3146 3149 3153 3154 3150 3150 3155 3158 3160 3163 3164 3166 3168
3112 3113 3113 3113 3113 3112 3112 3112 3112 3112 3112 3111 3112 3112 3111 3111 3111 3110 3110 3109 3108 3108 3106 3107 3108 3108 3107 3109 3111 3111 3112 3113 3113 3115 3116 3118 3118 3118 3118 3117 3117 3118 3117 3115 3115 3117 3117 3117 3116 3115 3114 3114 3114 3114 3115 3117 3117 3118 3120 3121 3122 3123 3124 3127 3128 3128 3129 3130 3131 3133 3136 3139 3142 3146 3149 3152 3153 3149 3148 3153 3157 3159 3162 3164 3166 3168
3113 3113 3113 3112 3112 3112 3112 3111 3111 3111 3111 3110 3111 3110 3110 3109 3109 3109 3108 3107 3107 3105 3103 3105 3107 3106 3105 3108 3111 3111 3111 3112 3113 3114 3116 3116 3116 3116 3117 3117 3116 3116 3115 3114 3113 3114 3115 3115 3115 3114 3114 3114 3113 3113 3115 3117 3117 3118 3120 3121 3122 3123 3123 3125 3128 3128 3127 3129 3130 3133 3136 3139 3142 3145 3147 3149 3151 3150 3150 3153 3156 3158 3161 3163 3165 3167
3112 3111 3112 3112 3111 3111 3111 3110 3110 3110 3110 3110 3110 3109 3108 3108 3107 3107 3106 3106 3106 3103 3102 3105 3106 3106 3107 3108 3110 3110 3111 3112 3112 3113 3114 3114 3114 3115 3115 3116 3115 3114 3113 3113 3112 3113 3114 3114 3113 3113 3113 3114 3113 3112 3114 3116 3117 3117 3119 3120 3121 3123 3124 3125 3126 3126 3126 3128 3131 3133 3135 3138 3140 3143 3146 3147 3148 3149 3151 3153 3155 3157 3160 3162 3164 3166
3109 3109 3109 3110 3111 3111 3110 3109 3109 3109 3108 3109 3108 3108 3107 3105 3105 3105 3104 3105 3104 3102 3102 3104 3105 3105 3107 3107 3109 3109 3109 3110 3110 3111 3113 3113 3114 3113 3113 3114 3113 3112 3111 3111 3111 3111 3112 3112 3112 3112 3112 3113 3113 3112 3113 3115 3116 3116 3117 3119 3120 3122 3125 3125 3126 3127 3127 3129 3131 3132 3133 3134 3137 3140 3142 3145 3146 3148 3150 3152 3153 3155 3158 3160 3162 3164
3108 3108 3108 3109 3109 3110 3109 3108 3108 3107 3107 3107 3107 3107 3106 3104 3105 3104 3102 3103 3104 3103 3103 3105 3105 3105 3105 3106 3107 3108 3108 3109 3109 3110 3111 3112 3113 3112 3112 3111 3111 3110 3109 3109 3109 3110 3110 3110 3110 3110 3111 3113 3113 3112 3113 3115 3115 3115 3116 3118 3119 3121 3124 3126 3126 3127 3128 3130 3131 3131 3131 3132 3135 3138 3140 3142 3144 3146 3148 3150 3151 3153 3156 3158 3160 3161
3108 3108 3108 3109 3109 3108 3108 3107 3106 3106 3107 3106 3106 3106 3105 3106 3107 3105 3103 3104 3105 3104 3104 3105 3105 3105 3105 3105 3106 3107 3108 3108 3108 3109 3110 3110 3111 3111 3110 3110 3109 3108 3107 3107 3108 3108 3108 3108 3108 3108 3110 3112 3113 3113 3113 3114 3115 3116 3116 3117 3118 3120 3122 3125 3126 3127 3129 3131 3131 3131 3131 3133 3136 3139 3138 3138 3141 3144 3147 3149 3150 3152 3155 3157 3158 3160
3107 3106 3107 3108 3107 3107 3107 3107 3106 3106 3106 3105 3105 3105 3106 3108 3109 3106 3106 3108 3106 3104 3105 3106 3105 3105 3105 3104 3105 3107 3107 3107 3107 3107 3108 3108 3108 3109 3109 3108 3107 3106 3106 3106 3106 3106 3107 3107 3107 3107 3108 3110 3112 3112 3113 3114 3114 3115 3117 3118 3118 3119 3121 3123 3125 3127 3129 3130 3130 3130 3131 3134 3137 3138 3137 3138 3141 3144 3146 3148 3150 3152 3154 3156 3157 3158
3106 3105 3105 3106 3106 3106 3106 3106 3106 3105 3105 3105 3105 3106 3106 3106 3107 3107 3107 3107 3105 3105 3106 3104 3104 3104 3105 3105 3105 3106 3106 3106 3106 3106 3106 3107 3107 3107 3107 3107 3106 3105 3104 3105 3105 3105 3105 3105 3105 3105 3106 3108 3110 3112 3113 3113 3114 3115 3116 3117 3118 3119 3121 3122 3124 3126 3128 3129 3129 3128 3128 3132 3136 3137 3137 3139 3141 3144 3146 3148 3149 3151 3153 3155 3156 3157
3104 3104 3104 3105 3105 3106 3106 3105 3105 3105 3105 3104 3104 3105 3104 3104 3105 3106 3106 3105 3105 3105 3103 3101 3102 3103 3105 3105 3104 3105 3105 3105 3105 3105 3105 3106 3105 3105 3105 3106 3105 3104 3103 3103 3103 3103 3104 3103 3103 3104 3104 3106 3109 3111 3112 3113 3113 3114 3115 3116 3117 3118 3119 3121 3122 3124 3126 3128 3128 3127 3127 3130 3135 3137 3139 3140 3142 3144 3146 3147 3148 3150 3152 3153 3155 3156
3104 3103 3102 3103 3104 3104 3104 3104 3104 3105 3104 3104 3103 3103 3103 3103 3104 3105 3105 3105 3104 3103 3099 3099 3101 3102 3103 3104 3103 3103 3105 3104 3104 3104 3104 3104 3104 3104 3104 3104 3104 3103 3102 3102 3102 3102 3102 3102 3102 3102 3103 3104 3107 3109 3111 3112 3113 3113 3114 3115 3116 3117 3118 3120 3121 3123 3125 3126 3127 3127 3127 3129 3133 3137 3139 3141 3142 3143 3145 3146 3147 3149 3150 3152 3153 3154
3104 3102 3101 3102 3103 3103 3103 3103 3103 3103 3103 3103 3102 3102 3102 3103 3104 3104 3104 3104 3103 3100 3098 3099 3100 3100 3101 3101 3100 3101 3102 3102 3103 3103 3103 3103 3103 3103 3103 3103 3103 3102 3101 3101 3101 3101 3101 3101 3101 3101 3102 3103 3104 3107 3109 3111 3111 3112 3113 3114 3115 3116 3117 3118 3120 3122 3123 3125 3126 3126 3127 3129 3131 3134 3137 3139 3141 3143 3144 3146 3147 3148 3149 3150 3151 3152
3104 3103 3101 3101 3102 3102 3102 3102 3101 3101 3101 3101 3100 3101 3102 3103 3104 3103 3102 3102 3101 3100 3099 3098 3097 3098 3098 3098 3098 3099 3100 3101 3101 3102 3102 3101 3101 3101 3101 3102 3102 3101 3101 3100 3100 3100 3100 3100 3100 3101 3101 3101 3102 3105 3107 3109 3110 3110 3111 3113 3113 3114 3116 3117 3118 3120 3122 3123 3124 3125 3126 3128 3129 3131 3133 3135 3138 3141 3143 3144 3145 3147 3148 3149 3149 3150
3104 3104 3102 3101 3100 3100 3100 3101 3100 3099 3100 3100 3099 3100 3101 3101 3102 3101 3101 3101 3101 3102 3101 3097 3094 3096 3097 3097 3097 3097 3099 3100 3100 3100 3100 3099 3099 3099 3099 3100 3100 3100 3100 3099 3099 3099 3099 3100 3100 3100 3100 3099 3101 3104 3106 3107 3108 3109 3110 3111 3112 3113 3114 3115 3116 3118 3119 3121 3122 3124 3125 3126 3127 3129 3131 3131 3132 3136 3139 3140 3142 3144 3145 3146 3147 3147
3103 3103 3102 3101 3100 3099 3099 3099 3099 3098 3099 3099 3098 3098 3099 3099 3100 3101 3100 3100 3101 3101 3100 3097 3095 3096 3097 3096 3097 3097 3098 3099 3099 3099 3098 3098 3097 3097 3097 3098 3098 3099 3099 3098 3098 3098 3098 3099 3099 3099 3099 3098 3100 3103 3105 3106 3107 3108 3108 3108 3109 3111 3112 3113 3115 3116 3117 3119 3120 3122 3123 3125 3126 3127 3128 3128 3128 3130 3132 3134 3137 3140 3143 3144 3144 3144
3103 3103 3102 3101 3100 3099 3098 3098 3098 3098 3098 3098 3098 3097 3097 3098 3100 3101 3100 3100 3100 3100 3099 3098 3097 3096 3096 3097 3097 3098 3098 3098 3098 3097 3097 3097 3096 3096 3097 3097 3097 3098 3098 3098 3097 3097 3098 3099 3099 3099 3099 3098 3099 3101 3103 3104 3106 3106 3107 3107 3108 3109 3111 3112 3113 3114 3116 3117 3119 3120 3121 3123 3124 3125 3126 3127 3128 3128 3129 3130 3131 3133 3136 3138 3140 3141
3103 3103 3102 3100 3098 3097 3097 3097 3097 3098 3097 3097 3097 3097 3097 3098 3099 3099 3099 3100 3100 3099 3099 3100 3098 3096 3096 3097 3097 3097 3097 3097 3096 3096 3096 3096 3096 3096 3097 3097 3097 3097 3098 3097 3097 3096 3097 3098 3098 3099 3099 3099 3098 3099 3101 3102 3104 3105 3106 3106 3107 3108 3109 3111 3112 3114 3115 3116 3117 3119 3120 3121 3123 3124 3125 3126 3127 3127 3128 3128 3129 3130 3131 3132 3134 3135
3102 3102 3102 3100 3097 3096 3096 3096 3096 3097 3097 3097 3097 3097 3097 3097 3098 3098 3098 3099 3100 3098 3098 3099 3098 3096 3095 3095 3096 3096 3096 3096 3096 3096 3096 3096 3096 3096 3096 3097 3097 3097 3097 3097 3096 3096 3096 3097 3097 3098 3099 3099 3099 3099 3099 3101 3102 3104 3105 3105 3106 3107 3108 3109 3111 3112 3114 3115 3116 3117 3118 3120 3121 3122 3123 3124 3125 3126 3126 3127 3128 3128 3129 3130 3131 3131
3102 3102 3102 3101 3099 3099 3098 3097 3096 3097 3097 3097 3096 3096 3097 3097 3097 3098 3098 3099 3099 3098 3097 3097 3097 3097 3095 3095 3095 3094 3094 3095 3095 3095 3095 3095 3095 3095 3096 3096 3097 3097 3097 3096 3096 3096 3096 3096 3096 3097 3098 3098 3098 3098 3099 3099 3101 3102 3103 3104 3105 3106 3107 3108 3109 3110 3112 3113 3114 3115 3117 3118 3119 3120 3121 3122 3123 3124 3125 3126 3126 3127 3127 3128 3129 3129
3102 3102 3102 3102 3101 3100 3100 3099 3098 3097 3097 3096 3096 3096 3096 3096 3097 3097 3098 3098 3097 3097 3096 3096 3096 3096 3095 3094 3094 3094 3094 3094 3094 3094 3094 3094 3095 3095 3095 3096 3096 3096 3096 3096 3096 3095 3095 3095 3095 3095 3096 3097 3097 3097 3097 3098 3099 3101 3102 3103 3104 3104 3105 3106 3107 3109 3110 3111 3112 3114 3115 3116 3117 3118 3119 3120 3121 3122 3123 3124 3124 3125 3125 3126 3126 3127
3102 3101 3101 3101 3101 3100 3100 3099 3098 3097 3097 3096 3096 3095 3096 3096 3096 3096 3096 3096 3096 3096 3095 3095 3095 3095 3095 3094 3094 3093 3093 3094 3094 3094 3094 3093 3094 3094 3094 3095 3095 3096 3095 3096 3096 3095 3095 3095 3094 3094 3095 3095 3096 3096 3097 3097 3098 3099 3100 3102 3103 3104 3104 3105 3106 3107 3108 3109 3110 3111 3113 3114 3115 3116 3117 3118 3119 3120 3121 3122 3122 3123 3123 3124 3124 3124
3102 3101 3101 3101 3100 3099 3099 3098 3097 3097 3096 3096 3095 3095 3095 3095 3095 3095 3095 3095 3095 3095 3094 3094 3095 3094 3094 3094 3093 3093 3093 3094 3094 3093 3093 3093 3093 3093 3094 3094 3095 3095 3096 3097 3097 3096 3095 3094 3094 3093 3094 3094 3095 3096 3096 3096 3097 3098 3099 3100 3102 3103 3103 3104 3104 3105 3106 3107 3108 3109 3111 3112 3113 3114 3115 3116 3116 3117 3118 3119 3120 3120 3121 3121 3121 3122
3102 3101 3100 3100 3099 3098 3098 3097 3097 3096 3096 3095 3095 3094 3094 3094 3094 3094 3094 3093 3093 3093 3093 3094 3094 3093 3093 3092 3092 3092 3093 3093 3093 3093 3093 3093 3093 3093 3094 3094 3095 3096 3097 3097 3097 3096 3095 3094 3093 3093 3093 3093 3094 3095 3095 3095 3096 3097 3098 3099 3100 3101 3103 3103 3103 3104 3104 3105 3106 3107 3108 3109 3110 3111 3112 3113 3114 3115 3115 3116 3116 3117 3117 3118 3119 3119
3101 3101 3100 3099 3099 3097 3097 3096 3096 3095 3095 3094 3094 3094 3093 3093 3093 3093 3093 3092 3092 3092 3092 3093 3093 3093 3091 3091 3092 3092 3093 3092 3093 3093 3092 3092 3093 3093 3093 3094 3096 3097 3098 3097 3096 3095 3094 3093 3092 3092 3093 3093 3093 3093 3094 3094 3094 3095 3096 3097 3099 3100 3101 3102 3103 3103 3103 3104 3104 3105 3105 3106 3107 3108 3109 3110 3111 3111 3112 3112 3113 3113 3114 3115 3115 3116
3101 3100 3100 3099 3098 3097 3096 3096 3095 3094 3094 3093 3093 3093 3093 3092 3092 3092 3092 3091 3091 3091 3091 3091 3092 3091 3091 3091 3092 3092 3093 3093 3092 3092 3092 3092 3092 3092 3093 3094 3095 3097 3097 3096 3095 3094 3093 3092 3091 3091 3092 3093 3092 3092 3093 3092 3092 3094 3095 3096 3097 3098 3099 3101 3102 3102 3103 3103 3103 3103 3103 3104 3104 3105 3105 3106 3107 3108 3108 3109 3110 3110 3111 3111 3111 3112
3101 3100 3100 3099 3098 3096 3095 3095 3094 3094 3093 3092 3091 3091 3092 3092 3091 3091 3091 3091 3090 3090 3090 3091 3091 3090 3090 3092 3092 3092 3092 3092 3092 3092 3091 3091 3091 3091 3092 3094 3095 3095 3095 3095 3094 3093 3092 3092 3091 3090 3091 3091 3091 3091 3091 3090 3091 3092 3093 3094 3095 3096 3098 3099 3100 3101 3101 3102 3102 3102 3103 3103 3102 3103 3103 3103 3104 3104 3105 3105 3106 3107 3107 3107 3107 3108
3100 3100 3099 3099 3098 3096 3095 3094 3094 3093 3092 3090 3089 3090 3090 3091 3091 3090 3090 3090 3090 3089 3089 3090 3090 3090 3091 3092 3092 3091 3091 3091 3091 3091 3090 3090 3090 3090 3091 3092 3093 3093 3093 3092 3092 3092 3092 3091 3090 3089 3089 3089 3089 3089 3089 3089 3090 3090 3091 3092 3093 3094 3096 3096 3097 3099 3099 3100 3101 3101 3101 3101 3101 3101 3101 3101 3101 3101 3101 3102 3102 3102 3103 3103 3103 3104
3100 3099 3099 3099 3098 3096 3095 3094 3093 3091 3090 3089 3089 3089 3089 3089 3089 3089 3089 3088 3089 3088 3088 3088 3089 3089 3090 3090 3090 3089 3089 3090 3090 3090 3089 3089 3089 3089 3090 3091 3091 3091 3091 3090 3091 3091 3091 3090 3089 3088 3087 3087 3088 3088 3088 3088 3089 3089 3090 3091 3092 3093 3093 3094 3095 3096 3097 3098 3098 3099 3099 3099 3100 3100 3099 3099 3099 3099 3099 3099 3098 3098 3098 3099 3099 3099
3099 3099 3098 3098 3097 3096 3094 3093 3091 3090 3089 3089 3089 3088 3088 3088 3088 3088 3087 3087 3087 3087 3087 3088 3088 3088 3089 3089 3087 3087 3087 3088 3088 3088 3088 3088 3088 3088 3089 3089 3089 3089 3089 3089 3089 3089 3089 3088 3087 3086 3086 3086 3087 3087 3087 3087 3088 3088 3089 3089 3090 3091 3092 3093 3093 3094 3095 3095 3096 3096 3097 3097 3097 3098 3098 3098 3097 3097 3097 3096 3096 3096 3095 3095 3095 3095
3098 3098 3098 3098 3097 3095 3094 3092 3090 3088 3088 3088 3088 3088 3088 3088 3088 3087 3087 3086 3086 3086 3087 3087 3087 3088 3088 3088 3086 3085 3086 3086 3086 3087 3087 3087 3087 3087 3087 3087 3087 3087 3087 3087 3087 3087 3086 3086 3086 3085 3084 3084 3085 3085 3085 3085 3086 3087 3087 3088 3089 3090 3091 3091 3092 3092 3093 3093 3094 3094 3094 3095 3095 3095 3095 3095 3095 3095 3094 3094 3093 3093 3093 3092 3092 3092
3096 3097 3097 3097 3096 3095 3094 3092 3089 3087 3086 3086 3086 3087 3087 3087 3087 3087 3086 3085 3085 3086 3086 3086 3087 3087 3088 3088 3086 3084 3085 3086 3085 3085 3086 3086 3086 3086 3086 3085 3085 3085 3085 3085 3085 3085 3084 3084 3084 3083 3082 3082 3083 3083 3083 3084 3085 3085 3086 3087 3088 3089 3089 3090 3090 3091 3091 3091 3092 3092 3092 3092 3092 3092 3092 3092 3092 3092 3092 3091 3091 3091 3090 3090 3089 3089
3095 3095 3096 3096 3095 3095 3094 3091 3088 3087 3086 3085 3085 3085 3086 3086 3086 3085 3085 3084 3085 3086 3085 3085 3086 3086 3087 3087 3085 3084 3085 3086 3084 3084 3084 3084 3084 3085 3085 3084 3083 3083 3083 3083 3084 3084 3083 3082 3082 3082 3081 3080 3081 3081 3082 3082 3083 3084 3085 3086 3087 3087 3088 3088 3089 3089 3090 3090 3090 3090 3090 3090 3090 3090 3090 3090 3090 3090 3090 3089 3089 3089 3088 3088 3087 3087
3093 3094 3094 3094 3094 3094 3094 3091 3088 3087 3086 3085 3085 3085 3086 3086 3085 3085 3085 3084 3085 3085 3084 3084 3085 3085 3086 3086 3084 3084 3086 3086 3084 3083 3083 3083 3084 3084 3084 3083 3083 3083 3083 3083 3084 3084 3083 3083 3082 3081 3081 3080 3080 3080 3080 3081 3081 3082 3083 3084 3085 3086 3086 3087 3087 3087 3088 3088 3088 3088 3088 3088 3088 3088 3088 3088 3088 3088 3088 3088 3087 3087 3087 3086 3085 3085
3091 3092 3092 3093 3092 3092 3092 3091 3088 3087 3085 3084 3084 3085 3086 3086 3085 3085 3084 3084 3084 3084 3083 3083 3083 3083 3085 3085 3083 3084 3085 3084 3083 3083 3083 3083 3083 3083 3083 3083 3084 3085 3084 3083 3083 3084 3084 3083 3082 3081 3081 3080 3080 3080 3080 3080 3080 3081 3081 3082 3083 3084 3084 3085 3085 3086 3086 3086 3087 3087 3087 3087 3087 3087 3087 3087 3087 3087 3087 3087 3086 3086 3085 3085 3084 3083
3089 3090 3090 3091 3091 3090 3090 3089 3088 3086 3084 3083 3084 3084 3085 3085 3085 3084 3084 3084 3084 3083 3082 3082 3082 3082 3083 3084 3083 3082 3082 3082 3083 3083 3083 3083 3083 3083 3083 3083 3084 3084 3083 3081 3082 3082 3082 3081 3081 3080 3080 3080 3080 3080 3079 3079 3080 3080 3080 3081 3082 3082 3083 3083 3084 3084 3085 3085 3086 3086 3086 3086 3086 3086 3086 3087 3087 3086 3086 3086 3085 3085 3084 3084 3083 3082
3087 3088 3088 3088 3089 3089 3088 3087 3086 3084 3082 3082 3083 3083 3084 3085 3083 3083 3083 3083 3082 3082 3081 3080 3080 3081 3082 3083 3083 3081 3081 3081 3082 3082 3082 3083 3083 3083 3082 3082 3083 3082 3081 3082 3081 3080 3080 3080 3080 3079 3079 3079 3080 3079 3079 3079 3079 3079 3080 3081 3081 3081 3082 3083 3083 3084 3084 3084 3085 3085 3085 3085 3085 3086 3086 3086 3086 3086 3085 3085 3085 3084 3083 3083 3082 3082
3085 3085 3086 3086 3086 3086 3086 3084 3083 3082 3081 3082 3083 3083 3083 3083 3082 3082 3083 3082 3082 3082 3081 3080 3080 3080 3080 3082 3082 3081 3080 3081 3080 3079 3080 3081 3082 3082 3082 3082 3082 3081 3081 3081 3080 3079 3079 3079 3078 3078 3078 3078 3078 3078 3078 3078 3079 3079 3079 3080 3080 3081 3081 3082 3082 3083 3083 3084 3084 3084 3084 3085 3085 3085 3085 3085 3085 3085 3084 3084 3084 3083 3083 3082 3081 3081
3083 3083 3083 3084 3083 3083 3082 3082 3082 3081 3080 3080 3081 3082 3082 3081 3081 3081 3081 3081 3082 3082 3081 3080 3079 3079 3079 3081 3082 3081 3081 3081 3080 3078 3077 3079 3080 3081 3081 3080 3080 3079 3080 3080 3079 3078 3078 3078 3077 3077 3078 3077 3077 3078 3078 3078 3078 3078 3079 3079 3080 3080 3081 3081 3082 3082 3082 3083 3083 3083 3083 3084 3084 3084 3084 3084 3084 3084 3084 3083 3083 3082 3082 3081 3081 3080
3081 3081 3082 3081 3081 3081 3081 3081 3081 3081 3080 3079 3080 3080 3080 3080 3080 3080 3079 3080 3081 3081 3080 3079 3078 3078 3078 3079 3080 3080 3080 3080 3079 3077 3076 3077 3079 3079 3078 3078 3078 3078 3078 3078 3078 3077 3078 3078 3078 3078 3077 3077 3077 3077 3077 3077 3078 3078 3078 3079 3079 3079 3080 3080 3081 3081 3082 3082 3082 3082 3083 3083 3083 3083 3083 3083 3083 3083 3083 3082 3082 3081 3081 3080 3080 3079
3079 3079 3079 3080 3080 3080 3080 3079 3080 3080 3080 3079 3079 3079 3078 3078 3078 3078 3079 3079 3080 3080 3079 3077 3077 3077 3076 3076 3077 3078 3079 3079 3078 3077 3075 3075 3076 3077 3077 3077 3077 3077 3077 3077 3077 3076 3077 3077 3077 3078 3077 3077 3077 3076 3077 3077 3077 3077 3078 3078 3078 3079 3079 3080 3080 3080 3081 3081 3081 3081 3082 3082 3082 3082 3082 3082 3082 3082 3082 3081 3081 3080 3080 3079 3079 3078
3077 3076 3077 3078 3078 3078 3078 3078 3078 3078 3078 3078 3078 3078 3078 3078 3077 3077 3078 3078 3078 3078 3078 3076 3076 3076 3075 3074 3075 3077 3077 3077 3077 3076 3075 3074 3074 3075 3076 3076 3076 3076 3076 3076 3075 3075 3075 3076 3076 3077 3076 3076 3076 3076 3076 3076 3077 3077 3077 3078 3078 3078 3079 3079 3080 3080 3080 3080 3081 3081 3081 3081 3081 3081 3081 3081 3081 3081 3081 3080 3080 3079 3079 3078 3078 3077
3075 3075 3076 3077 3077 3077 3076 3077 3077 3076 3076 3075 3076 3076 3077 3077 3077 3076 3077 3077 3077 3077 3077 3075 3075 3075 3075 3074 3074 3074 3075 3076 3076 3075 3074 3073 3073 3074 3075 3075 3074 3074 3074 3074 3074 3074 3074 3074 3075 3075 3075 3075 3075 3076 3076 3075 3076 3076 3077 3077 3077 3078 3078 3079 3079 3079 3079 3080 3080 3080 3080 3080 3080 3080 3080 3080 3080 3080 3079 3079 3079 3078 3078 3077 3076 3076
3073 3074 3075 3075 3075 3075 3075 3075 3075 3076 3076 3075 3074 3074 3075 3075 3075 3075 3075 3076 3076 3076 3076 3075 3074 3074 3074 3073 3073 3073 3074 3075 3074 3074 3073 3073 3073 3073 3073 3073 3073 3073 3073 3073 3073 3073 3073 3074 3074 3074 3074 3074 3074 3075 3075 3074 3074 3075 3076 3076 3077 3077 3077 3078 3078 3078 3078 3079 3079 3079 3079 3079 3079 3079 3079 3079 3078 3078 3078 3078 3077 3077 3076 3076 3075 3075
3072 3073 3073 3073 3073 3073 3074 3074 3074 3074 3074 3074 3074 3074 3074 3073 3073 3073 3073 3073 3074 3075 3074 3074 3073 3073 3072 3072 3072 3073 3073 3073 3072 3072 3072 3072 3072 3072 3072 3072 3072 3072 3072 3072 3072 3072 3072 3073 3073 3073 3073 3073 3073 3073 3074 3074 3074 3074 3074 3075 3076 3076 3076 3076 3077 3077 3077 3077 3078 3078 3078 3078 3078 3078 3077 3077 3077 3077 3077 3077 3077 3076 3075 3075 3074 3074